Regional Weather Roundup
Issued by NWS

Home | Current Version | Previous Version | Graphics & Text | Print | Product List | Glossary Off
Versions: 1 2 3 4 5 6 7 8 9 10 11 12 13 14 15 16 17 18 19 20 21 22 23 24 25 26 27

000
ASUS45 KCYS 232210
RWRWY

WYOMING REGIONAL WEATHER ROUNDUP
NATIONAL WEATHER SERVICE CHEYENNE WY
400 PM MDT WED APR 23 2014

NOTE:  "FAIR" INDICATES FEW OR NO CLOUDS BELOW 12,000 FEET
WITH NO SIGNIFICANT WEATHER AND/OR OBSTRUCTIONS TO VISIBILITY.

WYZ001-232300-
YELLOWSTONE NATIONAL PARK

CITY           SKY/WX    TMP DP  RH WIND       PRES   REMARKS
LK YELLOWSTONE   N/A     31  10  41 MISG      29.89S
W YELLOWSTONE  NOT AVBL

$$
WYZ002>013-054>058-071-098>099-232300-
NORTHERN WYOMING

CITY           SKY/WX    TMP DP  RH WIND       PRES   REMARKS
JACKSON        PTSUNNY   37  14  38 SW14G21   29.93S WCI  29
CODY           MOSUNNY   46  18  31 W8G26     29.79S
GREYBULL       PTSUNNY   57   7  13 NW30G36   29.73F
WORLAND        CLOUDY    51  25  36 VRB5      29.76S
SHERIDAN         N/A     45   5  19 SW29G41     N/A
BUFFALO        PTSUNNY   49  23  36 N20G26    29.73F
GILLETTE       PTSUNNY   49  31  49 NW15      29.73R
HULETT         MOCLDY    50  34  53 W7        29.73
NEWCASTLE      FAIR      52  32  46 N22       29.71

$$
WYZ014>020-022>026-101>103-232300-
CENTRAL WYOMING

CITY           SKY/WX    TMP DP  RH WIND       PRES   REMARKS
BIG PINEY      MOSUNNY   40   9  28 NW15G29   29.95R WCI  32
PINEDALE       PTCLDY    37  16  41 W21G32    29.95R WCI  27
DUBOIS         CLOUDY    37   5  25 NW20G29   29.86S WCI  27
LANDER         MOSUNNY   50   5  16 W23G37    29.80R
RIVERTON       PTSUNNY   50   3  14 NW25G35   29.78S
CASPER         SUNNY     56   9  15 W22G30    29.73R
DOUGLAS        MOSUNNY   55   9  16 W26G38    29.73R

$$
WYZ021-027>030-104>119-232300-
SOUTHERN WYOMING

CITY           SKY/WX    TMP DP  RH WIND       PRES   REMARKS
EVANSTON       MOSUNNY   40  13  33 W20G32    30.02R WCI  30
KEMMERER       CLOUDY    36  12  38 W22G31    29.98R WCI  24
FORT BRIDGER   FAIR      42  19  40 W24G30    30.03R
ROCK SPRINGS   MOSUNNY   44   6  21 W33G41    29.93S
DIXON          FAIR      47  14  26 W21G26    29.92S
RAWLINS        MOSUNNY   45   4  18 W28G38    29.85R
SARATOGA       FAIR      46   5  18 W24G35    29.87F
LARAMIE        CLOUDY    46  20  35 W28G35    29.79R
CHEYENNE       CLOUDY    54  22  28 NW21G38   29.68F
TORRINGTON     CLOUDY    60  18  19 W29G41    29.65S
PINE BLUFFS    CLOUDY    55  23  28 NW21G31   29.69R

$$



USA.gov is the U.S. government's official web portal to all federal, state and local government web resources and services.